This demonstration page uses our WeatherBlox Daily Observations layout. Learn more.

Left ArrowRight Arrow

Hourly Observations for October 7, 2022

Temp ( °F °C ) Dew Point ( °F °C ) Humidity (%) Winds ( mph kmh ) Pressure ( in mb ) Visibility ( mi km ) Precip ( " mm )
12:53 am 00:53 Clear 52 11.1 48 8.9 86 86 Calm 30.11 1020 10 16 0.00 0.00
1:53 am 01:53 Clear 52 11.1 48 8.9 86 86 Calm 30.11 1020 10 16 0.00 0.00
2:53 am 02:53 Clear 51 10.6 49 9.4 92 92 Calm 30.11 1020 10 16 0.00 0.00
3:53 am 03:53 Clear 50 10 48 8.9 93 93 Calm 30.11 1020 10 16 0.00 0.00
4:53 am 04:53 Clear 49 9.4 47 8.3 93 93 Calm 30.10 1019 10 16 0.00 0.00
5:53 am 05:53 Clear 49 9.4 47 8.3 93 93 Calm 30.11 1020 10 16 0.00 0.00
6:53 am 06:53 Clear 49 9.4 47 8.3 93 93 Calm 30.14 1021 10 16 0.00 0.00
7:53 am 07:53 Sunny 48 8.9 46 7.8 93 93 Calm 30.15 1021 10 16 0.00 0.00
8:53 am 08:53 Sunny 54 12.2 50 10 86 86 Calm 30.17 1022 10 16 0.00 0.00
9:53 am 09:53 Sunny 62 16.7 52 11.1 70 70 Calm 30.17 1022 10 16 0.00 0.00
10:53 am 10:53 Sunny 69 20.6 52 11.1 54 54 Calm 30.17 1022 10 16 0.00 0.00
11:53 am 11:53 Sunny 77 25 49 9.4 37 37 W 5 7 30.16 1021 10 16 0.00 0.00
12:53 pm 12:53 Sunny 80 26.7 51 10.6 36 36 WNW 9 15 30.15 1021 10 16 0.00 0.00
1:53 pm 13:53 Sunny 81 27.2 50 10 34 34 VRB 6 9 30.12 1020 10 16 0.00 0.00
2:53 pm 14:53 Sunny 82 27.8 49 9.4 32 32 WNW 13 20 30.09 1019 10 16 0.00 0.00
3:53 pm 15:53 Sunny 82 27.8 49 9.4 32 32 NNW 8 13 30.09 1019 10 16 0.00 0.00
4:53 pm 16:53 Sunny 81 27.2 47 8.3 30 30 NW 9 15 30.09 1019 10 16 0.00 0.00
5:53 pm 17:53 Sunny 80 26.7 47 8.3 31 31 NNW 12 19 30.08 1019 10 16 0.00 0.00
6:53 pm 18:53 Sunny 77 25 49 9.4 37 37 NNW 6 9 30.09 1019 10 16 0.00 0.00
7:53 pm 19:53 Clear 72 22.2 50 10 46 46 NNW 3 6 30.12 1020 10 16 0.00 0.00
8:53 pm 20:53 Clear 69 20.6 50 10 51 51 Calm 30.13 1020 10 16 0.00 0.00
9:53 pm 21:53 Clear 64 17.8 51 10.6 63 63 Calm 30.15 1021 10 16 0.00 0.00
10:53 pm 22:53 Clear 61 16.1 52 11.1 72 72 Calm 30.16 1021 10 16 0.00 0.00
11:53 pm 23:53 Clear 61 16.1 52 11.1 72 72 Calm 30.16 1021 10 16 0.00 0.00

Powered by AerisWeather